Content
SEND FEEDBACK

Daily
Averages
Monthly
Summary
United States of America

BEALE AIR FORCE BASE, CALIFORNIA


Home > North America > United States > California
Elevation: 125 feet     Latitude: 39 01N     Longitude: 121 25W

WEATHER
 
SELECT A DAY
Number of Records: 177,034;   Date Range: 1/3/95 - 7/29/14
 
SHARE

PRINT THIS DATA

[ ← Previous Day ]
WEATHER ALMANAC - FEBRUARY 13, 2013
[ Next Day → ]
[ °C ]   °F
Weather ElementAverageHighLow
Temperature47.6 °F60.8 °F (1:55 pm)33.8 °F (6:58 am)
Dewpoint38.1 °F42.8 °F (4:55 pm)31.5 °F (6:58 am)
Humidity72 %96 % (3:58 am)42 % (2:55 pm)
Barometer30.27 in30.35 in (9:55 am)30.20 in (5:58 pm)
Wind Speed3.1 mph6.9 mph (8:58 pm)
Weather ElementAverage
Visibility10 mi
Wind DirectionESE (101.3 °)

Weather ElementTotal
Precipitation---
Heating Degree Days17.7 (Base 65)
Averaged from 24 records on February 13, 2013
WEATHER CONDITIONS BREAKOUT
WIND DIRECTION BREAKOUT
WEATHER BY HOUR - FEBRUARY 13, 2013
[ °C ]   °F
Local TimeTemperatureDewpointHumidityBarometerVisibilityWind DirectionWind SpeedGust SpeedPrecipitationEventsConditions
1:58 AM38.7 °F34.2 °F84 %30.34 in10.0 miENE (70°)2.3 mphClear
2:58 AM37.9 °F34.3 °F87 %30.32 in10.0 miEast (80°)1.2 mphClear
3:58 AM34.5 °F33.4 °F96 %30.32 in10.0 miWSW (250°)1.2 mphClear
4:58 AM35.4 °F33.1 °F91 %30.32 in10.0 miCalmClear
5:58 AM35.1 °F33.6 °F94 %30.32 in10.0 miENE (70°)1.2 mphClear
6:58 AM33.8 °F31.5 °F91 %30.33 in10.0 miCalmClear
7:55 AM35.6 °F32.0 °F87 %30.34 in10.0 miEast (90°)2.3 mphClear
8:56 AM44.6 °F37.4 °F76 %30.34 in10.0 miCalm (340°)Clear
9:55 AM50.0 °F37.4 °F62 %30.35 in10.0 miVariable2.3 mphClear
10:55 AM53.6 °F39.2 °F58 %30.34 in10.0 miVariable2.3 mphClear
11:55 AM57.2 °F39.2 °F51 %30.30 in10.0 miSW (230°)4.6 mphClear
1:55 PM60.8 °F41.0 °F48 %30.25 in10.0 miVariable3.5 mphClear
2:55 PM60.8 °F37.4 °F42 %30.23 in10.0 miSSW (200°)4.6 mphClear
3:55 PM60.8 °F37.4 °F42 %30.22 in10.0 miSSW (200°)4.6 mphClear
4:55 PM59.0 °F42.8 °F55 %30.21 in10.0 miSouth (170°)5.8 mphClear
4:56 PM59.0 °F42.8 °F55 %30.21 in10.0 miSouth (170°)5.8 mphClear
5:55 PM53.6 °F41.0 °F62 %30.21 in10.0 miSE (140°)3.5 mphClear
5:58 PM54.3 °F41.0 °F61 %30.20 in10.0 miSE (140°)3.5 mphClear
6:58 PM48.9 °F41.2 °F75 %30.22 in10.0 miEast (80°)4.6 mphClear
7:59 PM47.7 °F40.8 °F77 %30.23 in10.0 miENE (70°)3.5 mphClear
8:58 PM46.4 °F41.0 °F81 %30.22 in10.0 miEast (80°)6.9 mphClear
9:58 PM45.5 °F40.6 °F83 %30.23 in10.0 miNNE (30°)6.9 mphClear
10:58 PM45.1 °F40.5 °F84 %30.24 in10.0 miCalmClear
11:58 PM45.1 °F41.0 °F85 %30.24 in10.0 miNNE (20°)3.5 mphClear
Hourly data recorded from KBAB, located miles away from Beale Air Force Base, California







STORIES FROM OUR PARTNERS